Retour au catalogue

STARLINK-3979

ActifCommunicationsVLEO
NORAD 52608·PAYLOAD·🇺🇸 United States

Lancé May 14, 2022 depuis Cape Canaveral Space Force Station

Loading…

Prochains Passages (prochaines 24 heures)

TLE

FraisSource: CelesTrak SupGP

Époque: Sep 15, 2026, 01:32 UTC

1 52608C 22052L   26258.06437500  .00034404  00000+0  98497-3 0  2582
2 52608  53.1580 141.4931 0001136  90.8820  49.8325 15.35361404    10

Suivez STARLINK-3979 en temps réel avec AllMySat

Download on the App Store